Flag for Switzerland Weather past 2 weeks in Solothurn, Solothurn, Switzerland

Now
61 °F

Cool.


Feels Like: 61 °F
Forecast: 54 / 68 °F
Wind: 2 mph from Northwest

Location: Grenchen

Current Time: Sep 20, 2014 at 6:24:54 AM

Latest Report: Sep 20, 2014 at 5:00 AM


Visibility: N/A

Pressure: 30.02 "Hg

Humidity: 99%

Dew point: 60 °F

Location of SolothurnLocation

Historic Weather in Solothurn — Graph

°F

Solothurn temperature yesterday

Maximum temperature yesterday: 71 °F (at 5:00 PM)
Minimum temperature yesterday: 58 °F (at 6:00 AM)
Average temperature yesterday: 64 °F

Past Weeks' High & Low Weather Summary

 TemperatureHumidityPressure
High79 °F (Sep 7, 5:00 PM)100% (Sep 6, 6:00 AM)30.14 "Hg (Sep 6, 6:00 AM)
Low49 °F (Sep 12, 7:00 AM)42% (Sep 16, 5:00 PM)29.80 "Hg (Sep 17, 4:00 PM)
Average63 °F81%29.99 "Hg
* Reported Sep 5 5:00 AM — Sep 20 5:00 AM, Solothurn, Weather by CustomWeather, © 2014

Note: Actual official high and low records may vary slightly from our data, if they occured in-between our weather recording intervals... More about our weather records

Advertising

Solothurn weather history for previous 24 hours

 ConditionsComfort  
Time TempWeatherWind HumidityBarometerVisibility
5:00 AM
Sep 20
61 °FCool.2 mph99%30.02 "HgN/A
4:00 AM61 °FCool.2 mph99%30.03 "HgN/A
3:00 AM61 °FCool.1 mph99%30.01 "HgN/A
2:00 AM60 °FCool.2 mph97%30.03 "HgN/A
1:00 AM61 °FCool.2 mph98%30.02 "HgN/A
12:00 AM61 °FCool.3 mph96%30.02 "HgN/A
11:00 PM
Sep 19
62 °FCool.2 mph95%30.02 "HgN/A
10:00 PM64 °FMild.2 mph89%30.01 "HgN/A
9:00 PM65 °FMild.2 mph86%30.00 "HgN/A
8:00 PM67 °FMild.1 mph76%29.97 "HgN/A
7:00 PM69 °FMild.2 mph66%29.95 "HgN/A
6:00 PM71 °FMild.5 mph63%29.95 "HgN/A
5:00 PM71 °FMild.3 mph65%29.95 "HgN/A
4:00 PM70 °FMild.6 mph69%29.96 "HgN/A
3:00 PM70 °FMild.8 mph67%29.96 "HgN/A
2:00 PM68 °FMild.6 mph80%29.97 "HgN/A
1:00 PM66 °FMild.6 mph81%29.98 "HgN/A
12:00 PM66 °FMild.5 mph80%29.98 "HgN/A
11:00 AM65 °FMild.2 mph81%29.99 "HgN/A
10:00 AM62 °FCool.3 mph89%29.98 "HgN/A
9:00 AM60 °FCool.3 mph96%29.99 "HgN/A
8:00 AM58 °FCool.2 mph98%29.98 "HgN/A
7:00 AM58 °FCool.1 mph98%29.97 "HgN/A
6:00 AM58 °FCool.2 mph98%29.96 "HgN/A
Weather by CustomWeather, © 2014

See weather overviewHow to use our weather pages